| time (UTC) | temp F | wind direction | speed knots | gust knots | rain 1hr in | rain 24hr in | rain mn in | humidity % | barometer mb |
| 20260902223004 | 76 | 162 | 2.6 | 7.8 | 0.00 | 0.00 | 0.00 | 66 | 1020.7 |
| 20260902222004 | 77 | 155 | 4.3 | 11.3 | 0.00 | 0.00 | 0.00 | 66 | 1020.5 |
| 20260902221004 | 76 | 208 | 6.1 | 11.3 | 0.00 | 0.00 | 0.00 | 65 | 1020.7 |
| 20260902220004 | 76 | 121 | 4.3 | 12.2 | 0.00 | 0.00 | 0.00 | 66 | 1020.9 |
| 20260902215004 | 75 | 181 | 6.1 | 13.0 | 0.00 | 0.00 | 0.00 | 69 | 1020.9 |
| 20260902213004 | 76 | 228 | 5.2 | 13.9 | 0.00 | 0.00 | 0.00 | 67 | 1020.9 |
| 20260902212005 | 77 | 171 | 5.2 | 13.9 | 0.00 | 0.00 | 0.00 | 64 | 1021.0 |
| 20260902211005 | 77 | 142 | 8.7 | 13.9 | 0.00 | 0.00 | 0.00 | 63 | 1020.9 |
| 20260902210004 | 76 | 153 | 7.0 | 14.8 | 0.00 | 0.00 | 0.00 | 65 | 1021.1 |
| 20260902204005 | 76 | 180 | 4.3 | 15.6 | 0.00 | 0.00 | 0.00 | 69 | 1021.3 |
| 20260902203004 | 76 | 173 | 7.0 | 17.4 | 0.00 | 0.00 | 0.00 | 66 | 1021.2 |
| 20260902202004 | 76 | 163 | 7.0 | 11.3 | 0.00 | 0.00 | 0.00 | 64 | 1021.4 |
| 20260902201005 | 76 | 232 | 3.5 | 13.0 | 0.00 | 0.00 | 0.00 | 64 | 1021.6 |
| 20260902200004 | 77 | 170 | 2.6 | 12.2 | 0.00 | 0.00 | 0.00 | 62 | 1021.6 |
| 20260902195008 | 76 | 162 | 9.6 | 12.2 | 0.00 | 0.00 | 0.00 | 62 | 1021.7 |
| 20260902194005 | 76 | 175 | 0.9 | 12.2 | 0.00 | 0.00 | 0.00 | 61 | 1022.0 |
| 20260902193005 | 77 | 129 | 1.7 | 10.4 | 0.00 | 0.00 | 0.00 | 61 | 1022.1 |
| 20260902192005 | 76 | 164 | 5.2 | 8.7 | 0.00 | 0.00 | 0.00 | 61 | 1022.3 |
| 20260902191002 | 78 | 168 | 3.5 | 8.7 | 0.00 | 0.00 | 0.00 | 59 | 1022.2 |
| 20260902190002 | 78 | 145 | 3.5 | 10.4 | 0.00 | 0.00 | 0.00 | 59 | 1022.2 |
| 20260902185003 | 74 | 256 | 1.7 | 10.4 | 0.00 | 0.00 | 0.00 | 61 | 1022.4 |
| 20260902184002 | 75 | 219 | 1.7 | 10.4 | 0.00 | 0.00 | 0.00 | 61 | 1022.6 |
| 20260902183005 | 74 | 189 | 4.3 | 10.4 | 0.00 | 0.00 | 0.00 | 62 | 1022.7 |
| 20260902182003 | 74 | 148 | 5.2 | 10.4 | 0.00 | 0.00 | 0.00 | 64 | 1022.9 |
| 20260902181002 | 75 | 183 | 5.2 | 8.7 | 0.00 | 0.00 | 0.00 | 63 | 1022.9 |
| 20260902180005 | 74 | 140 | 4.3 | 10.4 | 0.00 | 0.00 | 0.00 | 62 | 1023.0 |
| 20260902175003 | 76 | 170 | 5.2 | 7.8 | 0.00 | 0.00 | 0.00 | 62 | 1023.0 |
| 20260902173003 | 76 | 184 | 1.7 | 4.3 | 0.00 | 0.00 | 0.00 | 64 | 1023.4 |
| 20260902172002 | 74 | 217 | 1.7 | 7.0 | 0.00 | 0.00 | 0.00 | 63 | 1023.3 |
| 20260902170002 | 74 | 173 | 1.7 | 4.3 | 0.00 | 0.00 | 0.00 | 65 | 1023.1 |
| 20260902165003 | 74 | 176 | 1.7 | 4.3 | 0.00 | 0.00 | 0.00 | 64 | 1023.2 |
| 20260902164002 | 73 | 130 | 1.7 | 5.2 | 0.00 | 0.00 | 0.00 | 67 | 1023.1 |
| 20260902163003 | 71 | 351 | 2.6 | 5.2 | 0.00 | 0.00 | 0.00 | 68 | 1023.1 |
| 20260902162003 | 72 | 91 | 1.7 | 4.3 | 0.00 | 0.00 | 0.00 | 70 | 1023.0 |
| 20260902161003 | 70 | 357 | 1.7 | 5.2 | 0.00 | 0.00 | 0.00 | 73 | 1023.3 |
| 20260902160006 | 72 | 123 | 2.6 | 5.2 | 0.00 | 0.00 | 0.00 | 71 | 1023.1 |
| 20260902155002 | 69 | 19 | 0.9 | 5.2 | 0.00 | 0.00 | 0.00 | 74 | 1023.1 |
| 20260902154003 | 70 | 47 | 0.9 | 5.2 | 0.00 | 0.00 | 0.00 | 75 | 1023.2 |
| 20260902153002 | 70 | 307 | 2.6 | 6.1 | 0.00 | 0.00 | 0.00 | 77 | 1023.3 |
| 20260902152003 | 68 | 53 | 3.5 | 7.8 | 0.00 | 0.00 | 0.00 | 79 | 1023.2 |
| 20260902151002 | 67 | 329 | 2.6 | 7.0 | 0.00 | 0.00 | 0.00 | 81 | 1023.1 |
| 20260902150003 | 68 | 356 | 2.6 | 7.0 | 0.00 | 0.00 | 0.00 | 81 | 1023.3 |
| 20260902145003 | 67 | 21 | 1.7 | 7.0 | 0.00 | 0.00 | 0.00 | 82 | 1023.3 |
| 20260902144003 | 67 | 50 | 0.9 | 7.0 | 0.00 | 0.00 | 0.00 | 84 | 1023.3 |
| 20260902143003 | 67 | 83 | 4.3 | 7.0 | 0.00 | 0.00 | 0.00 | 84 | 1023.1 |
| 20260902142005 | 66 | 26 | 4.3 | 7.0 | 0.00 | 0.00 | 0.00 | 86 | 1023.2 |
| 20260902141003 | 67 | 83 | 2.6 | 6.1 | 0.00 | 0.00 | 0.00 | 86 | 1023.3 |
| 20260902140002 | 67 | 58 | 2.6 | 6.1 | 0.00 | 0.00 | 0.00 | 86 | 1023.1 |
| 20260902135003 | 66 | 103 | 1.7 | 6.1 | 0.00 | 0.00 | 0.00 | 90 | 1023.0 |
| 20260902134002 | 64 | 88 | 0.9 | 5.2 | 0.00 | 0.00 | 0.00 | 92 | 1023.0 |
| 20260902133009 | 64 | 74 | 1.7 | 4.3 | 0.00 | 0.00 | 0.00 | 93 | 1022.8 |
| 20260902131003 | 64 | 58 | 1.7 | 5.2 | 0.00 | 0.00 | 0.00 | 94 | 1022.6 |
| 20260902130006 | 64 | 67 | 1.7 | 2.6 | 0.00 | 0.00 | 0.00 | 94 | 1022.4 |
| 20260902125003 | 64 | 130 | 1.7 | 6.1 | 0.00 | 0.00 | 0.00 | 94 | 1022.5 |
| 20260902124003 | 64 | 111 | 1.7 | 5.2 | 0.00 | 0.00 | 0.00 | 94 | 1022.4 |
| 20260902123002 | 64 | 49 | 1.7 | 5.2 | 0.00 | 0.00 | 0.00 | 95 | 1022.5 |
| 20260902122005 | 64 | 82 | 1.7 | 5.2 | 0.00 | 0.00 | 0.00 | 95 | 1022.5 |
| 20260902121003 | 65 | 117 | 1.7 | 2.6 | 0.00 | 0.00 | 0.00 | 95 | 1022.6 |
| 20260902120003 | 64 | 53 | 1.7 | 4.3 | 0.00 | 0.00 | 0.00 | 95 | 1022.6 |
| 20260902115003 | 65 | 104 | 1.7 | 4.3 | 0.00 | 0.00 | 0.00 | 95 | 1022.5 |
| 20260902112003 | 65 | 63 | 0.9 | 4.3 | 0.00 | 0.00 | 0.00 | 95 | 1022.5 |
| 20260902111003 | 65 | 10 | 0.9 | 5.2 | 0.00 | 0.00 | 0.00 | 95 | 1022.6 |
| 20260902110004 | 65 | 76 | 1.7 | 5.2 | 0.00 | 0.00 | 0.00 | 95 | 1022.7 |
| 20260902105003 | 65 | 103 | 0.9 | 5.2 | 0.00 | 0.00 | 0.00 | 95 | 1022.5 |
| 20260902104003 | 65 | 31 | 1.7 | 5.2 | 0.00 | 0.00 | 0.00 | 95 | 1022.4 |
| 20260902103003 | 65 | 99 | 1.7 | 5.2 | 0.00 | 0.00 | 0.00 | 95 | 1022.4 |
| 20260902102004 | 65 | 118 | 1.7 | 4.3 | 0.00 | 0.00 | 0.00 | 95 | 1022.7 |
| 20260902101002 | 65 | 85 | 0.9 | 5.2 | 0.00 | 0.00 | 0.00 | 95 | 1022.5 |
| 20260902100003 | 65 | 99 | 1.7 | 5.2 | 0.00 | 0.00 | 0.00 | 94 | 1022.6 |
| 20260902095003 | 66 | 113 | 2.6 | 5.2 | 0.00 | 0.00 | 0.00 | 94 | 1022.7 |
| 20260902093003 | 66 | 11 | 1.7 | 7.0 | 0.00 | 0.00 | 0.00 | 94 | 1022.7 |
| 20260902092003 | 66 | 101 | 2.6 | 4.3 | 0.00 | 0.00 | 0.00 | 93 | 1023.0 |
| 20260902091003 | 66 | 49 | 1.7 | 2.6 | 0.00 | 0.00 | 0.00 | 93 | 1023.0 |
| 20260902090004 | 66 | 72 | 1.7 | 2.6 | 0.00 | 0.00 | 0.00 | 93 | 1023.0 |
| 20260902085003 | 66 | 20 | 0.0 | 4.3 | 0.00 | 0.00 | 0.00 | 93 | 1023.1 |
| 20260902084003 | 66 | 17 | 1.7 | 4.3 | 0.00 | 0.00 | 0.00 | 92 | 1023.1 |
| 20260902083003 | 66 | 60 | 0.9 | 4.3 | 0.00 | 0.00 | 0.00 | 92 | 1023.2 |
| 20260902082002 | 66 | 28 | 0.9 | 4.3 | 0.00 | 0.00 | 0.00 | 93 | 1023.2 |
| 20260902081003 | 66 | 131 | 1.7 | 4.3 | 0.00 | 0.00 | 0.00 | 94 | 1023.3 |
| 20260902080003 | 66 | 93 | 0.9 | 4.3 | 0.00 | 0.00 | 0.00 | 94 | 1023.3 |
| 20260902074003 | 66 | 96 | 0.9 | 2.6 | 0.00 | 0.00 | 0.00 | 95 | 1023.4 |
| 20260902073003 | 66 | 131 | 0.9 | 1.7 | 0.00 | 0.00 | 0.00 | 95 | 1023.5 |
| 20260902071003 | 66 | 90 | 0.0 | 1.7 | 0.00 | 0.00 | 0.00 | 95 | 1023.7 |
| 20260902070005 | 65 | 175 | 0.0 | 1.7 | 0.00 | 0.00 | 0.00 | 95 | 1023.6 |
| 20260902065003 | 65 | 277 | 0.9 | 2.6 | 0.00 | 0.00 | 0.00 | 95 | 1023.7 |
| 20260902064004 | 65 | 185 | 1.7 | 4.3 | 0.00 | 0.00 | 0.00 | 95 | 1023.8 |
| 20260902062004 | 66 | 245 | 2.6 | 2.6 | 0.00 | 0.00 | 0.00 | 95 | 1024.0 |
| 20260902060003 | 66 | 262 | 0.0 | 4.3 | 0.00 | 0.00 | 0.00 | 95 | 1024.1 |
| 20260902055003 | 66 | 249 | 0.9 | 7.0 | 0.00 | 0.00 | 0.00 | 96 | 1024.0 |
| 20260902054004 | 66 | 254 | 2.6 | 6.1 | 0.00 | 0.00 | 0.00 | 96 | 1024.0 |
| 20260902053004 | 66 | 259 | 1.7 | 5.2 | 0.00 | 0.00 | 0.00 | 95 | 1024.0 |
| 20260902051004 | 66 | 190 | 0.0 | 4.3 | 0.00 | 0.00 | 0.00 | 95 | 1023.9 |
| 20260902045005 | 67 | 285 | 3.5 | 5.2 | 0.00 | 0.00 | 0.00 | 93 | 1023.9 |
| 20260902044003 | 68 | 288 | 0.9 | 2.6 | 0.00 | 0.00 | 0.00 | 90 | 1023.8 |
| 20260902043003 | 67 | 75 | 0.9 | 2.6 | 0.00 | 0.00 | 0.00 | 90 | 1023.7 |
| 20260902041003 | 67 | 65 | 0.9 | 4.3 | 0.00 | 0.00 | 0.00 | 92 | 1023.6 |
| 20260902040005 | 67 | 296 | 1.7 | 8.7 | 0.00 | 0.00 | 0.00 | 90 | 1023.6 |
| 20260902035003 | 67 | 117 | 5.2 | 11.3 | 0.00 | 0.00 | 0.00 | 89 | 1023.3 |
| 20260902032003 | 67 | 124 | 7.8 | 15.6 | 0.00 | 0.00 | 0.00 | 90 | 1023.0 |
| 20260902031003 | 68 | 110 | 4.3 | 17.4 | 0.00 | 0.00 | 0.00 | 87 | 1022.7 |
| 20260902030003 | 68 | 129 | 5.2 | 19.1 | 0.00 | 0.00 | 0.00 | 85 | 1022.5 |
| 20260902024003 | 68 | 118 | 9.6 | 17.4 | 0.00 | 0.00 | 0.00 | 83 | 1022.3 |
| 20260902023003 | 68 | 156 | 5.2 | 17.4 | 0.00 | 0.00 | 0.00 | 86 | 1022.1 |
| 20260902022003 | 68 | 142 | 8.7 | 18.2 | 0.00 | 0.00 | 0.00 | 85 | 1021.8 |
| 20260902021003 | 68 | 138 | 7.8 | 19.1 | 0.00 | 0.00 | 0.00 | 86 | 1021.8 |
| 20260902020004 | 68 | 133 | 8.7 | 14.8 | 0.00 | 0.00 | 0.00 | 85 | 1021.7 |
| 20260902015003 | 68 | 130 | 7.8 | 14.8 | 0.00 | 0.00 | 0.00 | 86 | 1021.6 |
| 20260902014005 | 69 | 141 | 6.1 | 13.0 | 0.00 | 0.00 | 0.00 | 85 | 1021.4 |
| 20260902013003 | 68 | 169 | 2.6 | 14.8 | 0.00 | 0.00 | 0.00 | 87 | 1021.3 |
| 20260902012006 | 68 | 134 | 9.6 | 15.6 | 0.00 | 0.00 | 0.00 | 88 | 1021.2 |
| 20260902011004 | 69 | 135 | 6.1 | 17.4 | 0.00 | 0.00 | 0.00 | 89 | 1021.0 |
| 20260902010003 | 68 | 154 | 6.1 | 17.4 | 0.00 | 0.00 | 0.00 | 91 | 1021.0 |
| 20260902004003 | 71 | 132 | 5.2 | 14.8 | 0.00 | 0.00 | 0.00 | 83 | 1020.7 |
| 20260902002004 | 71 | 152 | 6.1 | 12.2 | 0.00 | 0.00 | 0.00 | 83 | 1020.7 |
| 20260902001003 | 71 | 131 | 8.7 | 13.0 | 0.00 | 0.00 | 0.00 | 84 | 1020.5 |
| 20260902000003 | 72 | 207 | 6.1 | 12.2 | 0.00 | 0.00 | 0.00 | 82 | 1020.5 |
| 20260901235004 | 72 | 166 | 4.3 | 11.3 | 0.00 | 0.00 | 0.00 | 78 | 1020.4 |
| 20260901234004 | 72 | 179 | 1.7 | 13.0 | 0.00 | 0.00 | 0.00 | 79 | 1020.3 |
| 20260901232005 | 71 | 171 | 2.6 | 10.4 | 0.00 | 0.00 | 0.00 | 81 | 1020.2 |
| 20260901231003 | 71 | 161 | 2.6 | 12.2 | 0.00 | 0.00 | 0.00 | 85 | 1020.0 |
| 20260901230004 | 71 | 131 | 5.2 | 13.0 | 0.00 | 0.00 | 0.00 | 86 | 1020.1 |
| 20260901225003 | 72 | 153 | 6.1 | 13.9 | 0.00 | 0.00 | 0.00 | 86 | 1020.4 |
| 20260901224005 | 72 | 182 | 6.1 | 13.0 | 0.00 | 0.00 | 0.00 | 84 | 1020.2 |